DMSP 5D-2 F11 DEB, 28308

Orbit data source: Space-Track

DMSP 5D-2 F11 DEB, 28308 is space debris in SSO originally from a launch on Thu, 28 Nov 1991 UTC launched from the Air Force Western Test Range (AFWTR). Debris objects in space refer to the collection of defunct objects orbiting the Earth. Examples of debris include non-operational satellites, rocket bodies, and fragments generated from explosions, collisions, or faulty payload assembly.

Loading next visibility...
Identifier
28308, 1991-082V
Orbit
SSO
Country
Flag of USUS
Related business
Manufacturer
Unknown
Mission
Spacecraft
Bus & Motor
Unknown
Mass
Unknown
Launch date (UTC)
1991-11-28 (35 years ago)
Launch vehicle
Unknown
Launch site
Air Force Western Test Range (AFWTR)
Object type
Payload
Rocket body
Debris
Shape & HBR
Unknown shape, 0.1 m
Radar Cross Section
Small (<0.1 m²)

Expand to show TLE details & history
Last TLE update: 1 day ago

TLE from 1 day ago
0 DMSP 5D-2 F11 DEB
1 28308U 91082V   26263.31752378  .00000646  00000-0  26508-3 0  9996
2 28308  98.5593 291.7115 0014941 105.3111 317.1271 14.30337794162786
Epoch: 2026-09-20T07:37Z
TLE epoch observation values (Epoch: 2026-09-20T07:37:14.054Z)
Latitude
61.22405°
Longitude
162.37101°
Altitude
793.194 km
Speed
7.467 km/s
True Right ascension
18h 23m 34s
True Declination
61° 04' 46"
Sunlit
Object was in daylight at epoch
Visualization orbit readout
Latitude
Unknown
Longitude
Unknown
Altitude
Unknown
Speed
Unknown
Apparent Right ascension
Unknown
Apparent Declination
Unknown
Sunlit
N/A
Visualization observer readout
Local Sidereal Time
08:07:05
Azimuth
Unknown
Elevation
Unknown
Doppler factor
Unknown
Orbital elements
Apogee altitude
798.446 km
Perigee altitude
777.033 km
Semi-major axis
7,165.877 km
Eccentricity
0.00149
Inclination
98.5593°
RAAN
291.7115°
Arg. of periapsis
105.3111°
True anomaly
317.01045°
Mean anomaly
317.1271°
Eccentric anomaly
317.06879°
Mean motion
3.57799 °/min
Orbital period
100.62 mins
BSTAR
0.00026508

Documentation

Showing up to 5 results
|